OZ1IEP-5 Weather Reports


Display with metric or nautical units.
time (UTC)temp
F
wind
direction
speed
MPH
gust
MPH
rain 1hr
in
rain 24hr
in
rain mn
in
humidity
%
barometer
mb
20260906040008 57 296 4.0 20.0 0.00 0.00 0.00 86 1016.2
20260906035006 57 288 3.0 14.0 0.00 0.00 0.00 86 1015.8
20260906034006 57 292 1.0 14.0 0.00 0.00 0.00 85 1015.7
20260906033008 57 296 4.0 30.0 0.00 0.00 0.00 85 1015.7
20260906032005 57 290 4.0 25.0 0.00 0.00 0.00 85 1015.6
20260906031005 57 298 9.0 21.0 0.00 0.00 0.00 85 1015.6
20260906030008 58 290 3.0 25.0 0.00 0.00 0.00 84 1015.5
20260906025005 58 302 13.0 26.0 0.00 0.00 0.00 85 1015.2
20260906024005 58 298 5.0 26.0 0.00 0.00 0.00 85 1015.2
20260906023008 58 294 7.0 26.0 0.00 0.00 0.00 85 1015.1
20260906022006 58 297 9.0 26.0 0.00 0.00 0.00 85 1014.9
20260906021005 58 304 7.0 26.0 0.00 0.00 0.00 84 1014.8
20260906020009 57 290 7.0 23.0 0.00 0.00 0.00 85 1014.6
20260906015006 58 305 6.0 23.0 0.00 0.00 0.00 85 1014.7
20260906014005 58 294 2.0 20.0 0.00 0.00 0.00 85 1014.6
20260906013007 58 290 5.0 26.0 0.00 0.00 0.00 84 1014.5
20260906012005 58 283 6.0 20.0 0.00 0.00 0.00 84 1014.5
20260906011006 58 291 2.0 16.0 0.00 0.00 0.00 84 1014.3
20260906010008 57 298 1.0 22.0 0.00 0.00 0.00 84 1014.1
20260906005005 57 280 2.0 21.0 0.00 0.00 0.00 84 1014.1
20260906004006 58 283 2.0 23.0 0.00 0.00 0.00 84 1014.0
20260906003008 58 292 5.0 32.0 0.00 0.00 0.00 84 1013.9
20260906002006 58 283 6.0 24.0 0.00 0.00 0.00 85 1013.8
20260906001005 58 299 5.0 26.0 0.00 0.00 0.00 85 1013.5
20260906000008 58 297 6.0 23.0 0.00 0.00 0.00 84 1013.5
20260905235006 58 291 2.0 25.0 0.00 0.00 0.00 84 1013.4
20260905234005 58 279 3.0 20.0 0.00 0.00 0.00 84 1013.2
20260905233008 58 283 1.0 26.0 0.00 0.00 0.00 83 1013.1
20260905232006 58 289 4.0 23.0 0.00 0.00 0.00 83 1013.0
20260905231005 58 285 3.0 24.0 0.00 0.00 0.00 83 1012.9
20260905230007 58 283 5.0 17.0 0.00 0.00 0.00 82 1012.9
20260905225006 58 286 5.0 25.0 0.00 0.00 0.00 82 1012.6
20260905224006 58 290 4.0 20.0 0.00 0.00 0.00 82 1012.5
20260905223008 58 298 5.0 20.0 0.00 0.00 0.00 82 1012.4
20260905222006 58 281 3.0 20.0 0.00 0.00 0.00 82 1012.3
20260905221005 58 287 2.0 20.0 0.00 0.00 0.00 82 1012.0
20260905220008 58 282 1.0 17.0 0.00 0.00 0.00 82 1012.0
20260905215006 58 292 2.0 22.0 0.00 0.00 0.00 81 1011.8
20260905214005 58 287 1.0 10.0 0.00 0.00 0.00 82 1011.5
20260905213007 58 277 1.0 12.0 0.00 0.00 0.00 83 1011.5
20260905212006 59 282 1.0 16.0 0.00 0.00 0.00 82 1011.4
20260905211005 59 279 0.0 13.0 0.00 0.00 0.00 82 1011.2
20260905210008 59 277 1.0 13.0 0.00 0.00 0.00 82 1011.1
20260905205006 59 262 0.0 10.0 0.00 0.00 0.00 82 1011.0
20260905204006 59 276 1.0 13.0 0.00 0.00 0.00 82 1010.9
20260905203008 59 281 1.0 7.0 0.00 0.00 0.00 82 1010.9
20260905202006 59 277 1.0 14.0 0.00 0.00 0.00 83 1010.8
20260905201005 59 271 1.0 20.0 0.00 0.00 0.00 82 1010.6
20260905200008 59 262 1.0 12.0 0.00 0.00 0.00 82 1010.5
20260905195006 59 273 0.0 9.0 0.00 0.00 0.00 80 1010.4
20260905194006 59 273 2.0 15.0 0.00 0.00 0.00 79 1010.4
20260905193008 59 273 1.0 7.0 0.00 0.00 0.00 79 1010.3
20260905192006 59 270 1.0 13.0 0.00 0.00 0.00 79 1010.2
20260905191005 59 273 2.0 15.0 0.00 0.00 0.00 79 1010.0
20260905190018 59 282 2.0 16.0 0.00 0.01 0.00 80 1010.0
20260905185006 59 283 1.0 16.0 0.00 0.01 0.00 80 1009.9
20260905184006 58 271 2.0 23.0 0.00 0.04 0.00 80 1009.9
20260905183008 58 271 1.0 20.0 0.00 0.04 0.00 83 1009.8
20260905182005 58 271 0.0 5.0 0.00 0.04 0.00 84 1009.6
20260905181005 59 297 0.0 16.0 0.00 0.05 0.00 83 1009.7
20260905180008 59 250 1.0 15.0 0.00 0.05 0.00 80 1009.3
20260905175005 60 261 1.0 16.0 0.00 0.05 0.00 79 1009.3
20260905174005 60 289 1.0 10.0 0.00 0.05 0.00 77 1009.1
20260905173008 60 271 1.0 15.0 0.00 0.05 0.00 77 1008.9
20260905172006 60 271 1.0 16.0 0.00 0.05 0.00 76 1008.8
20260905171005 60 282 2.0 17.0 0.00 0.05 0.00 75 1008.8
20260905170007 61 270 0.0 9.0 0.00 0.05 0.00 77 1008.7
20260905165005 61 244 0.0 9.0 0.00 0.05 0.00 79 1008.7
20260905164006 61 244 0.0 7.0 0.00 0.05 0.00 78 1008.5
20260905163008 61 257 1.0 7.0 0.00 0.05 0.00 78 1008.3
20260905162006 61 281 0.0 7.0 0.00 0.05 0.00 78 1008.3
20260905161005 61 255 0.0 6.0 0.00 0.05 0.00 78 1008.1
20260905160008 61 252 0.0 3.0 0.00 0.05 0.00 77 1007.9
20260905155005 62 266 0.0 6.0 0.00 0.05 0.00 77 1007.8
20260905154005 62 264 1.0 6.0 0.00 0.05 0.00 77 1007.9
20260905153008 62 278 1.0 7.0 0.00 0.05 0.00 76 1007.8
20260905152005 62 251 0.0 10.0 0.00 0.05 0.00 73 1007.7
20260905151005 63 284 0.0 7.0 0.00 0.05 0.00 73 1007.7
20260905150008 63 246 2.0 20.0 0.00 0.05 0.00 77 1007.5
20260905145006 63 241 1.0 9.0 0.00 0.05 0.00 77 1007.5
20260905144006 62 257 1.0 10.0 0.00 0.05 0.00 76 1007.3
20260905143008 63 250 0.0 7.0 0.00 0.06 0.00 75 1007.3
20260905142005 64 265 0.0 6.0 0.00 0.06 0.00 73 1007.2
20260905141006 64 260 1.0 6.0 0.00 0.06 0.00 74 1007.2
20260905140008 65 254 0.0 7.0 0.00 0.06 0.00 73 1007.2
20260905135006 65 230 0.0 6.0 0.00 0.06 0.00 74 1007.2
20260905134007 65 248 1.0 3.0 0.00 0.06 0.00 74 1007.1
20260905133008 65 243 1.0 12.0 0.00 0.06 0.00 74 1007.0
20260905132005 65 239 0.0 12.0 0.00 0.07 0.00 75 1006.8
20260905131006 64 260 2.0 12.0 0.00 0.11 0.00 75 1006.8
20260905130008 64 263 2.0 12.0 0.00 0.16 0.00 75 1006.8
20260905125006 64 250 0.0 9.0 0.00 0.24 0.00 76 1006.7
20260905124005 64 240 1.0 7.0 0.00 0.29 0.00 75 1006.6
20260905123008 64 254 1.0 7.0 0.00 0.31 0.00 76 1006.6
20260905122005 64 258 0.0 3.0 0.00 0.32 0.00 76 1006.6
20260905121006 64 240 0.0 5.0 0.00 0.33 0.00 75 1006.2
20260905120007 64 241 0.0 9.0 0.00 0.33 0.00 75 1006.2
20260905115006 64 256 0.0 10.0 0.00 0.35 0.00 75 1006.2
20260905114005 64 236 0.0 12.0 0.00 0.36 0.00 75 1006.1
20260905113008 64 249 0.0 12.0 0.00 0.38 0.00 74 1006.1
20260905112006 64 255 0.0 7.0 0.00 0.39 0.00 73 1005.8
20260905111005 64 226 0.0 6.0 0.00 0.39 0.00 76 1005.7
20260905110008 64 244 0.0 3.0 0.00 0.40 0.00 75 1005.7
20260905105005 64 247 0.0 3.0 0.00 0.41 0.00 77 1005.6
20260905104006 64 258 1.0 9.0 0.00 0.41 0.00 76 1005.6
20260905103008 63 215 0.0 5.0 0.00 0.42 0.00 77 1005.6
20260905102005 63 237 1.0 9.0 0.00 0.43 0.00 76 1005.5
20260905101005 63 213 0.0 9.0 0.00 0.43 0.00 78 1005.3
20260905100007 62 265 0.0 7.0 0.00 0.43 0.00 77 1005.3
20260905095005 63 270 0.0 7.0 0.00 0.43 0.00 77 1005.3
20260905094005 63 250 1.0 12.0 0.00 0.43 0.00 76 1005.2
20260905093008 62 251 1.0 15.0 0.00 0.44 0.00 77 1005.1
20260905092005 62 265 0.0 7.0 0.00 0.45 0.00 75 1005.0
20260905091005 62 247 1.0 10.0 0.00 0.45 0.00 75 1004.9
20260905090007 62 274 0.0 12.0 0.00 0.45 0.00 76 1004.9
20260905085005 62 247 1.0 13.0 0.00 0.45 0.00 77 1004.8
20260905084005 62 230 1.0 10.0 0.00 0.46 0.00 78 1004.7
20260905083008 62 240 0.0 3.0 0.00 0.46 0.00 80 1004.6
20260905082006 61 246 1.0 10.0 0.00 0.46 0.00 80 1004.6
20260905081005 61 249 1.0 13.0 0.00 0.46 0.00 79 1004.6
20260905080007 61 234 1.0 13.0 0.00 0.46 0.00 79 1004.5
20260905075005 61 231 3.0 13.0 0.00 0.46 0.00 80 1004.3
20260905074006 61 251 2.0 12.0 0.00 0.46 0.00 82 1004.2
20260905073007 61 242 1.0 8.0 0.00 0.46 0.00 82 1004.2
20260905072005 60 245 1.0 7.0 0.00 0.46 0.00 83 1004.1
20260905071006 60 258 1.0 10.0 0.00 0.46 0.00 84 1004.1
20260905070007 60 236 2.0 14.0 0.00 0.46 0.00 86 1004.0
20260905065006 59 242 0.0 12.0 0.00 0.46 0.00 86 1004.0
20260905064005 59 228 1.0 9.0 0.00 0.46 0.00 87 1004.0
20260905063010 59 248 1.0 12.0 0.00 0.46 0.00 87 1004.0
20260905062006 59 233 1.0 14.0 0.00 0.46 0.00 87 1004.0
20260905061007 59 239 1.0 13.0 0.00 0.46 0.00 88 1003.8
20260905060009 58 247 1.0 10.0 0.00 0.46 0.00 88 1003.6
20260905055008 58 250 1.0 12.0 0.00 0.46 0.00 88 1003.5
20260905054006 58 238 0.0 10.0 0.00 0.46 0.00 88 1003.5
20260905053010 58 256 1.0 9.0 0.00 0.46 0.00 87 1003.5
20260905052006 58 234 2.0 16.0 0.00 0.46 0.00 87 1003.5
20260905051006 58 246 0.0 7.0 0.00 0.46 0.00 87 1003.4
20260905050007 58 242 1.0 6.0 0.00 0.46 0.00 87 1003.1
20260905045005 58 257 0.0 6.0 0.00 0.46 0.00 87 1003.0
20260905044005 58 251 0.0 3.0 0.00 0.46 0.00 87 1003.0
20260905043007 58 231 0.0 6.0 0.00 0.46 0.00 86 1002.9
20260905042005 58 236 1.0 7.0 0.00 0.46 0.00 86 1002.8
20260905041005 58 240 0.0 12.0 0.00 0.46 0.00 86 1002.7